Regional Weather Roundup
Issued by NWS

Home | Current Version | Previous Version | Text Only | Print | Product List | Glossary Off
Versions: 1 2 3 4 5 6 7 8 9 10 11 12 13 14 15 16 17 18 19 20 21 22 23 24 25 26 27 28 29 30 31 32 33 34 35 36 37 38 39 40 41 42 43 44 45 46 47 48 49 50

000
ASUS43 KDTX 171710
RWRMI
MICHIGAN HOURLY REGIONAL WEATHER ROUNDUP
NATIONAL WEATHER SERVICE DETROIT/PONTIAC MI
1200 PM EST SUN DEC 17 2017

NOTE: "FAIR" INDICATES FEW OR NO CLOUDS BELOW 12,000 FEET WITH NO
SIGNIFICANT WEATHER AND/OR OBSTRUCTION TO VISIBILITY.

MIZ047>049-052>055-059>063-066>070-074>076-081>083-171800-
SOUTHEAST LOWER MICHIGAN

CITY           SKY/WX    TMP DP  RH WIND       PRES   REMARKS
ADRIAN         CLOUDY    31  28  89 E10       30.13F FOG     WCI  22
ALMA           CLOUDY    27  23  87 E10       30.16F WCI  17
ANN ARBOR      CLOUDY    30  27  88 NE6       30.14F FOG     WCI  24
BAD AXE        CLOUDY    27  18  69 E9        30.19F WCI  17
CARO           CLOUDY    28  21  76 E9        30.17F WCI  19
DETROIT CITY   CLOUDY    30  27  88 E10       30.18F WCI  21
DETROIT        CLOUDY    34  28  79 E7        30.17F WCI  28
FLINT          CLOUDY    27  22  81 E10       30.17F WCI  17
GROSSE ILE     CLOUDY    31  28  88 NE7       30.16F WCI  24
HILLSDALE      FOG       30  28  93 E7        30.09F VSB 3/4 WCI  23
HOWELL         CLOUDY    29  27  92 E8        30.14F FOG     WCI  21

CITY           SKY/WX    TMP DP  RH WIND       PRES   REMARKS
JACKSON        CLOUDY    31  27  85 E9        30.12F FOG     WCI  23
LAMBERTVILLE   CLOUDY    33  31  93 E7        30.13F FOG     WCI  26
LANSING        CLOUDY    28  26  92 E9        30.14F FOG     WCI  19
LAPEER         CLOUDY    27  21  79 E3        30.18F
MASON          CLOUDY    30  26  84 E5        30.13F FOG     WCI  25
MONROE         CLOUDY    32  29  86 E6        30.14F WCI  27
MT. CLEMENS    CLOUDY    28  26  93 E10       30.17F WCI  18
PONTIAC        CLOUDY    26  23  88 E8        30.15F WCI  18
PORT HOPE        N/A     27  17  66 SE12      30.19F WCI  17
PORT HURON     CLOUDY    25  18  74 SE6       30.20F WCI  18
TRI CITIES     CLOUDY    27  23  85 E10       30.18F WCI  17
MIDLAND        CLOUDY    27  22  81 E8        30.17F WCI  18
TROY           CLOUDY    28  25  86 NE6       30.19F WCI  22
SAGINAW HB     CLOUDY    28  21  74 SE6       30.18F WCI  22
$$
MIZ043>046-050>051-056>058-064>065-071>073-077>080-171800-
SOUTHWEST LOWER MICHIGAN

CITY           SKY/WX    TMP DP  RH WIND       PRES   REMARKS
BATTLE CREEK   CLOUDY    30  28  92 E9        30.10F FOG     WCI  22
BENTON HARBOR  CLOUDY    32  26  78 SE8       30.07F HAZE    WCI  25
BIG RAPIDS     CLOUDY    24  21  88 E7        30.13F WCI  16
COLDWATER      CLOUDY    30  29  96 MISG      30.10F FOG
HOLLAND        CLOUDY    27  24  89 E10       30.10F FOG     WCI  17
GRAND RAPIDS   CLOUDY    25  24  96 E14       30.12F FOG     WCI  13
IONIA          CLOUDY    27  24  89 E7        30.13F FOG     WCI  20
KALAMAZOO      CLOUDY    30  26  85 E6        30.10F FOG     WCI  24
LUDINGTON      CLOUDY    28  23  81 E10G17    30.10F WCI  19
MARSHALL       CLOUDY    30  29  97 E9        30.10F FOG     WCI  22
MOUNT PLEASANT CLOUDY    27  22  79 E10       30.15F WCI  18
MUSKEGON       CLOUDY    27  23  85 E13       30.10F FOG     WCI  16
SOUTH HAVEN    CLOUDY    32  28  85 E8        30.08F FOG     WCI  25
$$
MIZ016>042-171800-
NORTHERN LOWER MICHIGAN

CITY           SKY/WX    TMP DP  RH WIND       PRES   REMARKS
ALPENA         CLOUDY    24  22  91 SE3       30.21F FOG
BEAVER ISLAND  CLOUDY    26  22  87 SE9       30.17F WCI  16
BELLAIRE       CLOUDY    25  23  91 SE6       30.18F WCI  18
CADILLAC       CLOUDY    22  22  98 E8        30.09F FOG     WCI  13
CHARLEVOIX     CLOUDY    24  20  87 E7        30.19F WCI  15
FRANKFORT      MOSUNNY   26  21  79 E7        30.13F WCI  19
GAYLORD        CLOUDY    21  18  88 SE12      30.13F WCI   9
GRAYLING       CLOUDY    22  19  90 E6        30.16F WCI  14
HARBOR SPRINGS CLOUDY    20  15  81 E7        30.19F WCI  11
HOUGHTON LAKE  CLOUDY    23  20  88 E9        30.15F WCI  13
MANISTEE       CLOUDY    27  22  81 E12       30.11F WCI  17
OSCODA         CLOUDY    28  20  75 SE5       30.20F WCI  22
PELLSTON       CLOUDY    15  13  91 CALM      30.20F
ROGERS CITY    CLOUDY    24  19  82 SE3       30.22F
TRAVERSE CITY  CLOUDY    25  20  81 SE6       30.15F WCI  18
$$
MIZ007>008-015-171800-
EASTERN UPPER MICHIGAN

CITY           SKY/WX    TMP DP  RH WIND       PRES   REMARKS
KINROSS        FLURRIES   9   5  84 E8        30.21F WCI  -3
MACKINAC ISLAN CLOUDY    23  19  85 SE3       30.20F
NEWBERRY       CLOUDY    18  17  97 SE7       30.18F WCI   9
S. S. MARIE    CLOUDY     7   2  80 E6        30.23F WCI  -3
MUNISING         N/A     22  18  85 S7        30.14F WCI  13
$$
MIZ004>006-011>014-085-171800-
CENTRAL UPPER MICHIGAN

CITY           SKY/WX    TMP DP  RH WIND       PRES   REMARKS
MANISTIQUE     CLOUDY    25  19  78 SE7       30.16F WCI  18
ESCANABA       CLOUDY    29  24  82 SE9       30.14F WCI  20
MENOMINEE      CLOUDY    30  26  85 SE8       30.13F WCI  22
SAWYER-GWINN   CLOUDY    21  19  93 S8        30.10F WCI  12
$$
MIZ001>003-009>011-084-171800-
WESTERN UPPER MICHIGAN

CITY           SKY/WX    TMP DP  RH WIND       PRES   REMARKS
IRON MOUNTAIN  CLOUDY    21  18  88 CALM      30.09F
HOUGHTON       CLOUDY    23  19  85 SW9       30.09F WCI  13
COPPER HARBOR    N/A     26  20  77 W3        30.11F
$$

ABBREVIATIONS USED IN REMARKS
   TC - TEMPERATURE IN CELSIUS
  WCI - WIND CHILL INDEX
   HX - HEAT INDEX
  VSB - VISIBILITY





USA.gov is the U.S. government's official web portal to all federal, state and local government web resources and services.